Regional Weather Roundup
Issued by NWS Albany, NY

Home | Current Version | Previous Version | Graphics & Text | Print | Product List | Glossary Off
Versions: 1 2 3 4 5 6 7 8 9 10 11 12 13 14 15 16 17 18 19 20 21 22 23 24 25 26 27 28 29 30 31 32 33 34 35 36 37 38 39 40 41 42 43 44 45 46 47 48 49 50

000
ASUS41 KALY 290710
RWRALY

NEW YORK STATE HOURLY WEATHER ROUNDUP
NATIONAL WEATHER SERVICE ALBANY NY
300 AM EDT TUE JUL 29 2014

NOTE: "FAIR" INDICATES FEW OR NO CLOUDS BELOW 12,000 FEET WITH NO
SIGNIFICANT WEATHER AND/OR NO OBSTRUCTIONS TO VISIBILITY.

NYZ032-033-038>043-046>054-057>066-NYZ062>081-290800-
EAST


CITY           SKY/WX    TMP DP  RH WIND       PRES   REMARKS
ALBANY         CLOUDY    61  56  83 W5        29.73R
GLENS FALLS    CLOUDY    60  54  80 W3        29.70S
POUGHKEEPSIE   MOCLDY    65  56  72 NW5       29.73R
MONTGOMERY     MOCLDY    61  53  75 VRB5      29.76R
WHITE PLAINS   CLEAR     63  55  75 NW12      29.73R
ISLIP          CLEAR     67  57  70 NW7       29.71R
NEW YORK CITY  PTCLDY    67  55  65 NW18G25   29.74R
CENTRAL PARK   CLEAR     66  53  63 NW8G17    29.78R
$$

NYZ005>009-017-018-044>046-055-056-290800-
CENTRAL


CITY           SKY/WX    TMP DP  RH WIND       PRES   REMARKS
FULTON         CLEAR     56  51  84 CALM      29.80S
SYRACUSE       PTCLDY    55  55 100 SW6       29.79S
ROME           CLEAR     55  53  93 CALM      29.79S
ELMIRA         CLEAR     55  54  96 W6        29.83S
BINGHAMTON     MOCLDY    55  54  96 NW5       29.82R
MONTICELLO     PTCLDY    55  54  94 NW8       29.81R
$$

NYZ026>034-041>043-290800-
NORTH


CITY           SKY/WX    TMP DP  RH WIND       PRES   REMARKS
WATERTOWN      PTCLDY    56  49  77 NW5       29.78R
FORT DRUM      NOT AVBL
MASSENA        PTCLDY    57  51  80 NW9       29.74S
SARANAC LAKE   PTCLDY    51  49  92 CALM      29.73R
PLATTSBURGH    PTCLDY    57  54  89 W3        29.67S
$$

NYZ001>004-010>016-019>021-290800-
WEST


CITY           SKY/WX    TMP DP  RH WIND       PRES   REMARKS
NIAGARA FALLS  CLEAR     54  51  90 W9        29.86F
BUFFALO        PTCLDY    54  49  83 W3        29.87S
DUNKIRK        CLOUDY    59  51  75 NW9       29.89F
JAMESTOWN      CLOUDY    54  48  82 NW7       29.91S
WELLSVILLE     PTCLDY    52  47  83 W6        29.89F
ROCHESTER      CLEAR     56  53  90 W8        29.84S
PENN YAN       CLEAR     57  53  86 W7        29.84S
$$

             KEY
       WCI = WIND CHILL INDEX
       VSB = VISIBILITY
       HX  = HEAT INDEX
$$



USA.gov is the U.S. government's official web portal to all federal, state and local government web resources and services.